Regional Weather Roundup
Issued by NWS

Home | Current Version | Previous Version | Graphics & Text | Print | Product List | Glossary On
Versions: 1 2 3 4 5 6 7 8 9 10 11 12 13 14 15 16 17 18 19 20 21 22 23 24 25 26 27 28 29 30 31 32 33 34 35 36 37 38 39 40 41 42 43 44 45 46 47 48 49 50
000
ASUS45 KBOU 261207
RWRCO

WEATHER ROUNDUP FOR COLORADO
NATIONAL WEATHER SERVICE DENVER/BOULDER CO
500 AM MST FRI DEC 26 2014

NOTE: "FAIR" INDICATES FEW OR NO CLOUDS BELOW 12000 FEET WITH NO
SIGNIFICANT WEATHER AND/OR OBSTRUCTIONS TO VISIBILITY.

COZ001>005-013-030-031-261300-
...NORTHWEST COLORADO...

CITY           SKY/WX    TMP DP  RH WIND       PRES   REMARKS
CRAIG          LGT SNOW  18  13  80 W10       29.74R WCI   6
HAYDEN         CLOUDY    18  12  79 W5        29.71R WCI  11
MEEKER         LGT SNOW  20  14  77 NW9       29.72R WCI   9
MOUNT WERNER   NOT AVBL
STEAMBOAT SPGS NOT AVBL
WALDEN         NOT AVBL
$$

COZ006>008-011-261300-
...WEST CENTRAL VALLEYS...

CITY           SKY/WX    TMP DP  RH WIND       PRES   REMARKS
GRAND JUNCTION LGT SNOW  25  24  96 CALM      29.75R FOG
MONTROSE       CLOUDY    24  22  91 N5        29.74R WCI  18
EAGLE          CLOUDY    21  21 100 W3        29.71R
RIFLE          FLURRIES  23  20  88 CALM      29.73R
DELTA          FLURRIES  28  24  86 CALM      29.75S
NUCLA          CLOUDY    21  18  86 E6        29.75S WCI  14
$$

COZ017>023-064>068-261300-
...SOUTHWEST COLORADO...

CITY           SKY/WX    TMP DP  RH WIND       PRES   REMARKS
DURANGO        LGT SNOW  22  20  92 W3        29.66F FOG
CORTEZ         SNOW      22  20  92 E8        29.71S VSB 1/2 WCI  12
PAGOSA SPRINGS FLURRIES  22  22  98 SE3       29.66S
TELLURIDE      MOCLDY    13   8  78 SE6       29.63S WCI   4
WOLF CREEK PAS NOT AVBL
$$

COZ009-010-012-014-032>034-037-058>063-261300-
...CENTRAL COLORADO...

CITY           SKY/WX    TMP DP  RH WIND       PRES   REMARKS
ASPEN          LGT SNOW  20  17  88 N6        29.63S FOG     WCI  12
BUENA VISTA    LGT SNOW  15  11  85 NE8       29.71R WCI   4
COPPER MTN     NOT AVBL
BERTHOUD PASS  NOT AVBL
COTTONWOOD PAS NOT AVBL
GUNNISON       CLOUDY    12   7  79 CALM      29.68S
KREMMLING      NOT AVBL
LEADVILLE      CLOUDY     7   4  87 S10       29.60R WCI  -8
SALIDA         CLOUDY    19  17  92 CALM      29.80R VSB 3/4
SUNLIGHT       NOT AVBL
WILKERSON PASS NOT AVBL
$$

COZ069>075-261300-
...SAN LUIS VALLEY/SANGRE DE CRISTO MOUNTAINS...

CITY           SKY/WX    TMP DP  RH WIND       PRES   REMARKS
ALAMOSA        CLOUDY    19  15  84 SE3       29.65S
LA VETA PASS   NOT AVBL
SAGUACHE       NOT AVBL
$$

COZ035-036-038>040-261300-
...NORTHERN COLORADO FRONT RANGE...

CITY           SKY/WX    TMP DP  RH WIND       PRES   REMARKS
DENVER INTL AP LGT SNOW  16  14  92 N5        29.88S VSB 1   WCI   9
DMNS CITY PARK   N/A     17  15  93 NE5       29.89S WCI  10
AURORA         FLURRIES  15  15  98 N7        29.88R WCI   6
FRONT RANGE AP NOT AVBL
ERIE MUNI ARPT NOT AVBL
BOULDER MUN AP NOT AVBL
CENTENNIAL     LGT SNOW  15  13  91 N8        29.86R FOG     WCI   4
BROOMFIELD     NOT AVBL
FORT COLLINS   MOCLDY    18  14  86 NE5       29.92S WCI  11
LONGMONT       NOT AVBL
$$

COZ041-046-047-076>085-087-088-261300-
...PIKES PEAK/PALMER DIVIDE AND SOUTHERN FOOTHILLS...

CITY           SKY/WX    TMP DP  RH WIND       PRES   REMARKS
COLO. SPRINGS  CLOUDY    18  10  71 N10       29.81R WCI   6
A. F. ACADEMY  MIX PCPN  15   9  77 N14G22    29.79R WCI   0
ELLICOTT       NOT AVBL
FALCON         NOT AVBL
FORT CARSON    CLOUDY    19  11  69 N18       29.79R WCI   4
LIMON          LGT SNOW  17  15  92 N18       29.85R FOG     WCI   1
MONUMENT HILL  NOT AVBL
TRINIDAD       LGT SNOW  22  19  89 N9        29.82R VSB 3/4 WCI  12
$$

COZ042>045-048>051-090-091-261300-
...NORTHEAST COLORADO...

CITY           SKY/WX    TMP DP  RH WIND       PRES   REMARKS
GREELEY ARPT   PTCLDY    18  10  73 N5        29.91F WCI  11
AKRON          CLOUDY    19  17  92 N18       29.89R WCI   4
BURLINGTON     CLOUDY    22  20  92 N17G26    29.88R FOG     WCI   8
WRAY           CLOUDY    25  23  94 N16G23    29.92S FOG     WCI  12
STERLING       NOT AVBL
HOLYOKE        NOT AVBL
FORT MORGAN    FLURRIES  19  16  88 N14       29.92S WCI   5
$$

COZ086-089-092>099-261300-
...SOUTHEAST COLORADO...

CITY           SKY/WX    TMP DP  RH WIND       PRES   REMARKS
PUEBLO         CLOUDY    24  13  62 NE14      29.86S WCI  12
LA JUNTA       CLOUDY    26  20  77 N9        29.89R WCI  17
LAMAR          CLOUDY    27  21  78 NE10      29.89R WCI  17
SPRINGFIELD      N/A     24  22  91 N13       29.84R WCI  12
$$


USA.gov is the U.S. government's official web portal to all federal, state and local government web resources and services.